Wind_Speed
48 48 47 46 44 44 44 44 44 43 42 41 40 40 40 40 40 39 39 40 40 40 39 38 38 38 37 37 36 35 34 33 32 32 32 32 32 33 33 33 33 34 34
48 48 48 46 45 45 44 43 42 43 43 42 41 41 41 41 41 40 41 41 41 41 40 40 38 39 38 38 37 35 35 34 34 34 34 33 33 34 34 34 34 34 35
48 48 48 47 46 45 45 43 43 43 44 44 43 43 43 42 42 42 42 42 41 41 41 40 39 38 38 37 37 36 35 35 35 35 35 35 34 35 35 35 35 35 36
46 48 48 48 47 46 45 44 44 43 43 44 43 43 42 42 43 42 42 42 42 42 42 42 41 39 38 37 37 36 36 36 35 35 35 36 36 36 36 36 36 36 36
44 46 47 47 46 45 45 44 45 43 43 44 42 43 43 43 44 44 43 42 42 42 42 42 42 41 39 38 37 37 37 36 36 36 36 36 37 37 36 36 36 36 37
41 44 45 46 46 46 45 46 44 44 43 43 42 41 42 43 45 46 45 44 43 43 41 41 41 41 40 39 38 37 37 37 37 37 37 37 37 36 37 37 37 37 37
39 41 43 44 45 44 43 45 44 44 43 43 43 42 42 43 44 45 46 44 44 43 42 41 40 40 39 39 39 38 38 37 38 38 38 38 37 37 38 37 37 38 38
37 39 41 43 43 43 44 44 43 43 43 44 43 43 43 43 43 44 44 45 45 44 43 43 42 41 40 39 38 38 38 38 38 38 39 40 39 37 37 37 38 38 38
36 37 40 41 41 41 42 43 42 42 42 44 45 44 43 43 43 43 44 45 45 44 43 43 42 41 40 40 38 39 39 40 40 39 39 39 40 38 38 38 38 38 39
33 36 38 40 41 42 41 43 43 43 42 43 43 42 43 44 44 44 43 44 44 43 43 42 42 41 41 40 40 38 38 40 40 40 39 39 39 38 38 39 39 40 40
33 34 36 38 40 40 41 43 43 43 43 43 43 42 42 42 43 43 44 44 45 44 42 41 41 41 41 41 42 41 40 39 39 39 39 39 38 38 39 39 39 40 41
31 33 34 36 38 38 39 40 42 43 44 43 43 43 43 42 42 43 44 45 45 45 43 41 41 41 41 42 42 41 40 40 39 38 38 38 38 38 39 39 39 40 40
29 31 33 35 36 37 37 39 40 41 43 44 43 43 43 43 42 42 42 43 44 44 44 42 41 41 41 40 40 40 40 40 40 39 37 37 38 38 38 39 39 39 40
28 30 31 33 34 35 36 37 39 39 40 42 43 43 42 42 42 42 42 42 42 43 43 43 41 41 41 41 40 40 39 39 39 39 39 38 37 37 37 37 38 38 39
27 28 29 30 32 34 34 35 36 38 38 39 41 41 41 41 42 42 41 41 40 41 41 41 41 41 40 40 40 40 39 39 38 38 38 37 36 36 36 36 36 37 38
25 26 27 29 30 32 32 33 34 35 36 38 39 40 40 40 40 39 40 39 39 39 39 40 40 39 39 39 39 40 39 39 38 37 37 36 35 35 35 36 36 36 37
26 27 28 29 29 30 31 32 32 33 34 36 37 37 38 38 39 39 39 39 39 39 39 40 40 40 40 40 40 39 38 37 37 37 36 36 35 35 35 35 36 36 37
26 28 28 28 29 30 31 31 32 32 33 34 35 36 36 36 37 38 38 39 39 39 39 39 39 39 39 38 38 39 38 37 36 36 36 36 36 36 35 35 35 36 36
25 26 28 28 29 29 30 30 31 31 32 32 33 35 35 36 36 37 37 37 37 38 38 38 39 38 39 39 38 38 37 37 37 36 36 36 36 36 35 36 35 35 35
25 26 27 28 29 29 29 29 30 31 31 31 32 33 34 35 35 34 34 35 36 37 37 37 36 36 36 37 37 36 36 36 36 36 36 35 35 35 36 36 36 35 34
24 24 25 27 28 28 29 30 30 29 30 30 31 31 32 32 33 33 33 33 34 35 35 36 36 35 34 35 35 35 35 35 35 35 35 34 34 35 35 35 34 34 34
24 24 23 24 26 27 28 29 29 29 30 30 31 31 31 31 31 31 32 33 34 34 34 34 35 35 34 34 35 35 34 34 35 35 35 34 34 34 34 33 32 33 34
24 24 24 24 25 26 27 28 28 29 29 30 30 31 31 30 31 31 31 31 32 33 34 33 33 34 34 34 34 34 34 34 34 34 34 34 34 33 32 31 31 32 33
23 24 24 25 26 27 27 27 27 28 29 30 30 31 31 31 31 31 32 32 32 33 33 33 33 33 33 33 34 34 33 33 33 33 33 32 31 31 30 30 30 31 32
22 23 23 24 24 26 26 27 27 28 29 30 30 30 30 30 30 30 30 30 31 32 32 32 32 33 33 33 33 33 32 32 31 31 30 29 29 29 29 30 30 31 31
22 22 22 23 23 25 26 27 27 28 29 29 29 29 29 29 29 29 30 30 30 30 31 31 31 31 32 32 32 32 31 30 30 29 29 29 28 29 29 29 29 29 29
Wind_Direction
230 230 229 229 229 230 231 232 234 235 235 235 233 235 235 236 238 240 241 243 244 246 247 248 249 252 254 256 258 260 263 266 269 271 273 276 279 282 283 283 284 286 287
230 229 229 229 229 229 230 231 233 234 234 235 235 236 237 237 239 241 241 243 245 246 248 249 250 253 255 256 257 260 263 266 269 271 274 275 277 280 282 283 285 286 287
229 228 228 229 229 229 229 232 233 233 234 235 237 237 238 238 240 241 242 244 245 247 248 251 251 253 254 256 258 260 263 266 269 271 274 274 276 279 281 282 283 285 287
228 228 228 229 230 230 230 232 234 235 233 235 237 238 238 239 239 239 240 243 245 247 249 251 252 254 254 256 258 260 262 265 268 271 274 275 278 280 281 281 283 285 287
228 227 227 229 231 231 232 233 233 234 233 234 237 239 239 239 238 238 239 242 244 246 248 250 252 254 255 256 259 261 264 266 268 271 274 275 278 279 280 281 282 284 286
227 228 228 230 231 232 234 233 234 234 234 234 236 239 239 239 238 238 239 241 243 244 246 248 250 253 255 257 259 262 265 267 269 271 273 275 278 279 279 280 281 283 286
230 229 229 230 231 232 233 233 235 235 235 235 236 238 239 240 239 238 239 240 242 244 246 249 251 253 255 258 259 262 264 266 268 271 273 274 275 278 280 280 281 283 286
232 231 231 231 232 233 232 232 235 236 236 236 237 239 239 239 241 240 239 240 243 246 247 249 251 253 255 257 259 262 264 265 268 270 272 272 274 278 279 280 281 282 285
232 232 234 233 233 234 235 235 236 236 237 237 238 240 241 240 242 244 243 243 244 246 247 249 250 252 255 256 258 261 263 265 268 270 272 273 273 276 279 280 281 282 285
235 235 235 235 235 235 235 236 238 238 236 235 237 240 242 243 244 245 246 245 244 245 247 249 252 253 255 257 258 261 264 266 267 268 271 273 274 276 278 280 282 284 286
238 238 237 236 237 238 239 239 239 239 237 236 237 240 242 243 244 246 246 245 245 245 247 248 250 254 256 258 260 262 264 265 266 268 269 271 273 276 279 281 283 284 286
242 241 240 239 238 239 241 241 241 240 239 239 240 241 242 243 244 245 246 247 247 245 246 247 250 254 256 258 260 262 263 264 266 268 269 272 275 277 280 282 284 285 286
242 242 242 242 241 240 240 240 240 239 240 240 241 241 242 242 243 245 246 247 247 247 247 248 250 253 254 256 259 262 264 265 266 268 270 272 276 278 280 282 284 286 287
245 245 244 244 243 242 242 240 239 239 241 241 241 241 242 243 243 246 247 247 248 249 250 249 250 252 254 255 258 261 264 264 266 267 269 273 277 278 280 282 284 286 288
248 249 248 246 245 244 242 241 241 241 242 241 241 241 242 242 243 245 247 247 248 248 251 251 250 251 253 255 258 261 262 263 265 267 269 272 275 278 280 282 285 288 290
250 248 248 246 244 243 242 243 243 242 241 240 240 240 242 243 244 246 247 247 247 248 250 250 249 251 253 255 257 259 262 263 265 267 269 271 273 277 280 283 286 289 291
253 251 250 247 244 243 242 242 242 242 240 238 238 239 240 241 243 246 247 247 248 248 250 250 249 251 253 254 256 260 263 265 266 266 268 271 273 277 281 284 287 289 292
254 253 250 246 244 243 242 242 241 240 239 239 238 239 241 242 244 247 248 249 249 249 250 249 249 251 253 254 256 260 263 265 266 267 269 270 273 277 280 284 287 289 291
255 252 248 245 244 243 242 241 240 241 241 240 240 240 241 241 243 245 247 248 250 250 249 248 249 252 254 256 258 260 263 264 264 266 268 270 273 277 280 283 286 288 290
256 252 246 243 243 243 242 240 240 241 242 241 241 241 240 241 243 245 246 248 249 249 249 249 250 252 254 256 258 259 262 262 263 265 268 271 274 277 280 282 284 286 288
255 251 247 244 243 242 241 240 240 242 242 241 241 241 240 242 244 245 246 246 247 248 249 249 250 252 254 256 257 258 260 261 263 265 268 271 274 277 280 282 283 285 288
254 251 249 245 242 240 240 240 241 241 242 241 241 241 242 243 244 246 248 248 248 248 248 250 252 252 254 257 257 257 258 261 263 265 268 271 274 278 280 282 283 285 288
254 254 251 249 245 242 241 242 243 242 241 242 242 242 242 243 245 246 248 248 248 249 250 252 253 255 255 258 258 258 259 262 264 265 268 271 273 276 279 281 283 287 290
255 254 251 250 247 245 243 242 243 242 241 241 242 243 243 244 245 247 248 248 248 249 250 252 253 254 255 256 257 257 258 261 265 267 269 271 272 275 279 282 284 287 290
255 253 251 250 248 246 244 244 245 244 242 241 241 242 242 243 244 245 246 247 247 247 248 250 253 254 253 255 257 258 258 261 264 265 266 268 271 274 277 280 283 286 289
257 252 249 248 247 245 244 244 246 246 244 243 243 243 243 243 243 245 247 248 247 247 248 250 250 252 253 253 255 257 257 258 261 263 265 268 271 274 276 280 283 285 288
Height
5690 5695 5700 5705 5710 5714 5719 5723 5727 5731 5735 5739 5743 5746 5750 5753 5756 5759 5762 5765 5768 5771 5773 5775 5778 5780 5782 5784 5785 5786 5787 5787 5788 5788 5788 5787 5786 5784 5783 5781 5779 5777 5776
5680 5685 5691 5696 5700 5705 5710 5715 5718 5723 5727 5731 5734 5738 5741 5745 5748 5751 5754 5757 5760 5762 5765 5767 5769 5771 5774 5775 5777 5779 5779 5780 5780 5780 5780 5780 5779 5777 5775 5773 5771 5770 5768
5670 5676 5681 5686 5691 5696 5702 5706 5709 5713 5718 5722 5725 5729 5733 5736 5739 5743 5746 5748 5751 5754 5757 5759 5761 5763 5765 5768 5769 5771 5772 5772 5772 5772 5772 5771 5771 5770 5768 5766 5764 5762 5760
5661 5666 5672 5678 5683 5688 5693 5697 5701 5705 5709 5713 5716 5720 5724 5728 5731 5734 5737 5740 5744 5746 5749 5751 5753 5756 5758 5760 5761 5762 5763 5764 5764 5764 5763 5763 5762 5761 5760 5759 5756 5754 5752
5652 5657 5663 5669 5674 5679 5684 5688 5692 5696 5700 5704 5708 5711 5715 5718 5722 5725 5729 5732 5735 5738 5741 5743 5745 5748 5750 5751 5753 5754 5755 5755 5756 5756 5755 5755 5754 5752 5751 5751 5749 5746 5744
5644 5649 5654 5659 5664 5669 5674 5678 5682 5687 5691 5695 5699 5702 5706 5709 5712 5716 5720 5723 5726 5729 5732 5734 5737 5739 5741 5743 5744 5746 5747 5747 5748 5747 5747 5746 5745 5744 5743 5742 5740 5739 5736
5636 5641 5646 5650 5655 5660 5665 5669 5673 5678 5682 5686 5690 5694 5697 5700 5703 5707 5710 5714 5717 5720 5723 5725 5728 5730 5732 5734 5736 5737 5738 5738 5739 5739 5738 5737 5737 5736 5735 5733 5732 5730 5729
5629 5633 5638 5642 5647 5651 5656 5660 5664 5668 5672 5677 5681 5685 5688 5691 5694 5698 5701 5705 5708 5711 5714 5716 5719 5721 5723 5725 5727 5728 5729 5730 5730 5730 5729 5729 5728 5727 5726 5725 5723 5722 5721
5622 5626 5630 5634 5638 5643 5647 5651 5655 5659 5663 5667 5671 5675 5679 5682 5685 5689 5692 5696 5699 5702 5704 5707 5710 5712 5714 5716 5718 5719 5720 5721 5721 5721 5720 5720 5719 5718 5717 5716 5714 5713 5712
5615 5619 5622 5626 5631 5635 5639 5643 5646 5650 5654 5658 5662 5666 5669 5673 5676 5680 5683 5687 5690 5693 5696 5699 5701 5703 5705 5707 5709 5710 5711 5712 5712 5712 5711 5711 5710 5709 5708 5707 5705 5704 5702
5609 5612 5615 5619 5623 5627 5630 5634 5638 5642 5646 5650 5654 5657 5661 5664 5667 5671 5674 5677 5680 5684 5687 5689 5692 5694 5696 5698 5700 5701 5702 5702 5702 5702 5702 5702 5701 5701 5699 5697 5696 5694 5692
5602 5605 5608 5611 5614 5618 5622 5625 5629 5633 5637 5641 5645 5648 5652 5655 5659 5662 5665 5668 5671 5674 5677 5680 5683 5685 5687 5689 5691 5692 5692 5693 5693 5693 5693 5693 5692 5691 5690 5688 5687 5685 5683
5595 5597 5600 5603 5606 5610 5613 5617 5620 5624 5628 5631 5635 5639 5642 5646 5649 5652 5655 5658 5661 5664 5668 5671 5673 5676 5678 5680 5681 5682 5683 5684 5684 5684 5684 5684 5683 5683 5681 5680 5678 5676 5673
5588 5590 5593 5595 5598 5601 5604 5608 5611 5615 5618 5622 5626 5630 5633 5636 5640 5643 5646 5649 5652 5655 5658 5661 5664 5666 5668 5670 5672 5673 5674 5675 5675 5675 5675 5675 5675 5674 5672 5671 5669 5666 5664
5582 5583 5585 5587 5590 5593 5596 5599 5602 5606 5609 5613 5617 5620 5624 5627 5630 5633 5637 5640 5643 5646 5649 5651 5654 5657 5659 5661 5663 5664 5665 5665 5666 5666 5667 5667 5666 5665 5664 5662 5660 5658 5655
5575 5576 5578 5579 5582 5584 5587 5590 5594 5597 5600 5604 5608 5611 5615 5618 5621 5624 5627 5630 5633 5636 5639 5642 5645 5648 5650 5652 5653 5655 5656 5656 5657 5657 5658 5658 5658 5656 5655 5653 5651 5649 5646
5568 5569 5570 5572 5574 5576 5579 5582 5585 5588 5592 5595 5599 5602 5606 5609 5612 5615 5618 5621 5624 5627 5630 5632 5635 5638 5640 5643 5644 5645 5646 5647 5647 5648 5649 5649 5649 5648 5646 5645 5642 5640 5637
5561 5561 5563 5564 5567 5569 5571 5574 5577 5580 5583 5586 5590 5593 5597 5600 5603 5606 5609 5612 5614 5617 5620 5623 5626 5628 5631 5633 5635 5636 5637 5638 5638 5639 5639 5640 5640 5639 5638 5636 5634 5631 5628
5553 5554 5556 5557 5559 5562 5564 5566 5569 5572 5575 5578 5581 5585 5588 5591 5594 5597 5600 5603 5605 5608 5611 5613 5616 5619 5621 5623 5625 5627 5628 5629 5630 5630 5631 5631 5631 5630 5629 5628 5626 5623 5620
5546 5547 5548 5550 5552 5554 5557 5559 5562 5565 5568 5570 5573 5576 5580 5583 5586 5589 5591 5594 5596 5599 5601 5604 5607 5609 5612 5614 5616 5618 5619 5621 5621 5622 5622 5622 5622 5621 5619 5618 5617 5615 5612
5539 5540 5541 5543 5545 5547 5550 5552 5555 5558 5560 5563 5566 5569 5572 5575 5577 5580 5583 5585 5588 5590 5592 5595 5598 5600 5602 5604 5607 5608 5610 5611 5612 5613 5613 5613 5613 5612 5611 5609 5607 5605 5603
5533 5533 5535 5536 5538 5540 5543 5545 5548 5550 5553 5555 5558 5561 5564 5567 5569 5572 5574 5576 5579 5581 5584 5586 5589 5591 5593 5596 5597 5599 5601 5602 5603 5604 5604 5604 5603 5603 5602 5600 5598 5597 5595
5526 5527 5528 5529 5531 5533 5536 5538 5540 5542 5545 5547 5550 5553 5556 5559 5561 5563 5566 5568 5570 5573 5575 5578 5580 5582 5584 5586 5588 5590 5592 5593 5594 5594 5595 5595 5595 5594 5593 5591 5590 5588 5586
5520 5520 5521 5522 5524 5526 5528 5530 5532 5535 5537 5540 5542 5545 5548 5550 5553 5555 5557 5560 5562 5564 5567 5569 5571 5574 5575 5577 5579 5581 5583 5584 5585 5585 5586 5586 5586 5585 5584 5583 5582 5580 5578
5513 5513 5514 5515 5517 5518 5520 5523 5525 5527 5529 5532 5534 5537 5539 5541 5544 5546 5548 5551 5553 5555 5558 5560 5562 5565 5567 5569 5570 5572 5574 5575 5576 5577 5577 5578 5577 5577 5576 5575 5574 5572 5570
5506 5506 5507 5508 5509 5511 5513 5515 5517 5519 5521 5524 5526 5529 5531 5533 5535 5538 5540 5542 5545 5547 5549 5551 5554 5556 5558 5560 5561 5563 5565 5566 5567 5568 5569 5569 5569 5569 5568 5567 5566 5564 5562